Volver al catálogo

CENTAURI-9

ActivoRadioaficionadoSSO
NORAD 69924·PAYLOAD·🇯🇵 Japan

Lanzado Jul 7, 2026 desde Vandenberg Space Force Base

Loading…

Próximos Pases (próximas 24 horas)

TLE

ActualizadoSource: Space-Track

Época: Sep 14, 2026, 13:06 UTC

1 69924U 26156BH  26257.54624724  .00000934  00000-0  97088-4 0  9998
2 69924  97.7442 156.8720 0006843 287.4217  72.6253 14.92213529 10325

Sigue CENTAURI-9 en tiempo real con AllMySat

Download on the App Store